Location: Unspecified
(40.9447°N, 78.9903°W)
Time: 07:26:11
(UTC-05:00)

ISS - Visible Passes

Search period start: 24 January 2019 00:00
Search period end: 03 February 2019 00:00
Orbit: 404 x 410 km, 51.6° (Epoch: 24 January)

Date Brightness Start Highest point End Pass type
(mag) Time Alt. Az. Time Alt. Az. Time Alt. Az.
24 Jan -3.4 17:56:38 10° SW 17:59:49 48° SE 18:02:58 10° ENE visible
24 Jan -1.6 19:33:40 10° W 19:35:42 23° NW 19:35:42 23° NW visible
25 Jan -2.7 18:41:53 10° W 18:44:59 38° NNW 18:46:34 23° NNE visible
26 Jan -1.4 19:28:17 10° WNW 19:30:06 17° NNW 19:30:06 17° NNW visible
27 Jan -1.9 18:36:17 10° WNW 18:38:57 22° NNW 18:40:51 14° NNE visible
28 Jan -1.2 19:22:54 10° NW 19:24:17 13° NNW 19:24:17 13° NNW visible
29 Jan -1.5 18:30:52 10° NW 18:32:59 16° NNW 18:34:58 11° NNE visible
30 Jan -1.2 19:17:10 10° NNW 19:18:20 13° N 19:18:20 13° N visible
31 Jan -1.4 18:25:22 10° NW 18:27:03 13° N 18:28:44 10° NNE visible
01 Feb -1.5 19:10:53 10° NNW 19:12:22 14° N 19:12:22 14° N visible
02 Feb -1.5 18:19:23 10° NNW 18:21:05 13° N 18:22:47 10° NE visible
02 Feb -0.7 19:55:34 10° NW 19:55:46 11° NW 19:55:46 11° NW visible
